FW8702 Weather Reports


time (UTC)temp
F
wind
direction
speed
knots
gust
knots
rain 1hr
in
rain 24hr
in
rain mn
in
humidity
%
barometer
mb
20260904120040 87 244 0.9 4.3 0.00 0.00 0.00 49 1019.9
20260904114503 85 218 1.7 7.0 0.00 0.00 0.00 51 1020.0
20260904113011 86 92 1.7 4.3 0.00 0.00 0.00 52 1020.1
20260904111546 86 188 1.7 3.5 0.00 0.00 0.00 51 1020.2
20260904110006 86 153 0.0 1.7 0.00 0.00 0.00 49 1020.3
20260904104550 84 200 0.0 3.5 0.00 0.00 0.00 54 1020.6
20260904103055 83 275 0.9 3.5 0.00 0.00 0.00 56 1020.7
20260904101515 83 217 1.7 2.6 0.00 0.00 0.00 54 1020.8
20260904100025 84 183 0.0 3.5 0.00 0.00 0.00 54 1021.1
20260904094508 82 131 0.9 2.6 0.00 0.00 0.00 56 1021.1
20260904093051 80 278 1.7 3.5 0.00 0.00 0.00 55 1021.5
20260904091550 80 275 1.7 6.1 0.00 0.00 0.00 57 1021.6
20260904090002 80 280 0.9 1.7 0.00 0.00 0.00 57 1021.6
20260904084502 79 262 0.0 2.6 0.00 0.00 0.00 58 1021.6
20260904083011 78 172 0.0 1.7 0.00 0.00 0.00 57 1021.5
20260904081506 78 123 0.9 2.6 0.00 0.00 0.00 58 1021.5
20260904080105 77 74 0.0 2.6 0.00 0.00 0.00 59 1021.5
20260904074533 76 150 0.0 2.6 0.00 0.00 0.00 63 1021.5
20260904073006 75 106 0.0 2.6 0.00 0.00 0.00 64 1021.5
20260904071525 74 111 0.0 5.2 0.00 0.00 0.00 67 1021.4
20260904070117 74 82 1.7 3.5 0.00 0.00 0.00 63 1021.3
20260904064507 73 292 0.9 3.5 0.00 0.00 0.00 66 1021.2
20260904063027 72 331 0.0 3.5 0.00 0.00 0.00 71 1021.2
20260904061552 71 270 0.0 2.6 0.00 0.00 0.00 69 1020.9
20260904060037 71 330 0.9 2.6 0.00 0.00 0.00 71 1021.0
20260904054601 68 333 0.9 5.2 0.00 0.00 0.00 74 1021.0
20260904053029 67 350 0.0 2.6 0.00 0.00 0.00 74 1020.9
20260904051534 68 292 0.0 5.2 0.00 0.00 0.00 74 1020.8
20260904050040 66 295 0.9 4.3 0.00 0.00 0.00 78 1020.7
20260904044511 67 283 1.7 4.3 0.00 0.00 0.00 76 1020.5
20260904043035 67 293 0.9 3.5 0.00 0.00 0.00 77 1020.4
20260904041521 67 340 0.9 7.0 0.00 0.00 0.00 76 1020.4
20260904040059 68 284 0.9 3.5 0.00 0.00 0.00 74 1020.4
20260904034558 68 285 1.7 3.5 0.00 0.00 0.00 75 1020.7
20260904033056 68 142 0.0 6.1 0.00 0.00 0.00 76 1020.6
20260904031529 68 273 1.7 5.2 0.00 0.00 0.00 76 1020.5
20260904030032 68 294 0.9 2.6 0.00 0.00 0.00 76 1020.6
20260904024522 68 279 0.0 3.5 0.00 0.00 0.00 76 1020.6
20260904023052 67 337 0.0 2.6 0.00 0.00 0.00 77 1020.5
20260904021556 68 278 0.0 1.7 0.00 0.00 0.00 76 1020.5
20260904020034 69 324 0.0 2.6 0.00 0.00 0.00 74 1020.6
20260904014558 69 275 0.0 1.7 0.00 0.00 0.00 75 1020.4
20260904013027 69 36 0.0 3.5 0.00 0.00 0.00 76 1020.4
20260904011533 69 266 0.9 5.2 0.00 0.00 0.00 76 1020.3
20260904010040 70 289 1.7 5.2 0.00 0.00 0.00 75 1020.5
20260904004525 69 274 0.0 2.6 0.00 0.00 0.00 76 1020.4
20260904003100 70 288 0.0 3.5 0.00 0.00 0.00 74 1020.5
20260904001534 72 283 0.0 3.5 0.00 0.00 0.00 72 1020.6
20260904000103 72 348 0.9 5.2 0.00 0.00 0.00 73 1020.6
20260903234547 70 317 0.0 4.3 0.00 0.00 0.00 77 1020.8
20260903233103 69 332 1.7 5.2 0.00 0.00 0.00 78 1020.8
20260903231535 70 284 0.0 3.5 0.00 0.00 0.00 76 1020.9
20260903230107 71 282 1.7 2.6 0.00 0.00 0.00 76 1020.8
20260903224539 71 277 0.9 3.5 0.00 0.00 0.00 76 1020.7
20260903223057 70 283 0.0 3.5 0.00 0.00 0.00 78 1020.7
20260903221543 70 306 0.0 3.5 0.00 0.00 0.00 80 1020.7
20260903220026 69 273 0.0 3.5 0.00 0.00 0.00 80 1020.6
20260903214608 69 319 0.0 1.7 0.00 0.00 0.00 80 1020.7
20260903213054 69 281 0.0 1.7 0.00 0.00 0.00 81 1020.6
20260903211530 70 308 0.0 1.7 0.00 0.00 0.00 80 1020.5
20260903210104 69 50 0.9 2.6 0.00 0.00 0.00 81 1020.7
20260903204601 68 42 0.0 1.7 0.00 0.00 0.00 81 1020.5
20260903203017 69 331 0.0 1.7 0.00 0.00 0.00 81 1020.4
20260903201544 69 332 0.9 2.6 0.00 0.00 0.00 81 1020.4
20260903200015 69 265 0.0 1.7 0.00 0.00 0.00 80 1020.3
20260903194525 70 287 0.9 1.7 0.00 0.00 0.00 79 1020.3
20260903193008 71 309 0.0 1.7 0.00 0.00 0.00 78 1020.1
20260903191516 71 279 0.0 0.9 0.00 0.00 0.00 77 1019.9
20260903190002 72 324 0.0 1.7 0.00 0.00 0.00 76 1019.8
20260903184519 73 306 0.0 0.9 0.00 0.00 0.00 75 1019.6
20260903183006 74 307 0.0 1.7 0.00 0.00 0.00 74 1019.5
20260903181527 75 320 0.9 1.7 0.00 0.00 0.00 73 1019.3
20260903180041 77 241 0.0 0.0 0.00 0.00 0.00 71 1019.1
20260903174545 80 150 0.0 0.0 0.00 0.00 0.00 68 1019.0
20260903173035 82 126 0.0 0.9 0.00 0.00 0.00 64 1018.8
20260903171548 83 126 0.0 0.0 0.00 0.00 0.00 62 1018.8
20260903170024 84 126 0.0 0.0 0.00 0.00 0.00 56 1018.9
20260903164517 85 124 0.9 1.7 0.00 0.00 0.00 51 1018.8
20260903163025 87 116 0.9 2.6 0.00 0.00 0.00 48 1018.8
20260903161556 87 123 0.0 1.7 0.00 0.00 0.00 45 1018.8
20260903160101 87 197 0.0 1.7 0.00 0.00 0.00 45 1018.8
20260903154518 88 192 0.0 2.6 0.00 0.00 0.00 44 1019.0
20260903153041 87 132 0.0 3.5 0.00 0.00 0.00 46 1018.9
20260903151505 88 111 0.9 2.6 0.00 0.00 0.00 43 1019.0
20260903144542 88 132 0.9 3.5 0.00 0.00 0.00 40 1019.3
20260903143001 87 151 0.0 2.6 0.00 0.00 0.00 41 1019.3
20260903141556 88 183 0.9 3.5 0.00 0.00 0.00 41 1019.3
20260903140045 87 138 1.7 5.2 0.00 0.00 0.00 43 1019.6
20260903134550 87 252 0.0 2.6 0.00 0.00 0.00 43 1019.7
20260903133104 86 234 1.7 4.3 0.00 0.00 0.00 44 1019.8
20260903131531 86 122 0.0 1.7 0.00 0.00 0.00 43 1019.8
20260903130039 87 219 0.0 4.3 0.00 0.00 0.00 42 1019.9
20260903124534 86 227 1.7 6.1 0.00 0.00 0.00 42 1020.2
20260903123100 86 250 2.6 7.0 0.00 0.00 0.00 42 1020.4
20260903121511 86 237 0.9 5.2 0.00 0.00 0.00 42 1020.4